CAPE
0 0 0 0 0 0 0 0 0 4 36 58 21 0 0 0 0 0 0 0 0 0 0 0 0 0 0 0 0 0 0 0 0 0 0 0 0 0 0 0 0 0 0
0 0 0 0 0 0 0 0 0 2 0 0 0 0 0 0 0 0 0 0 0 0 0 0 0 0 0 0 0 0 0 0 0 0 0 0 0 0 0 0 0 0 0
0 0 0 0 0 0 0 0 0 0 0 0 0 0 0 0 0 0 0 0 0 0 0 0 0 0 0 0 0 0 0 0 0 0 0 0 0 0 0 0 0 0 0
0 0 0 0 0 0 0 0 0 0 0 0 0 0 0 0 0 0 0 0 0 0 0 0 0 0 0 0 0 0 0 0 0 0 0 0 0 0 0 0 0 0 0
0 0 0 0 0 0 0 0 0 0 0 0 0 0 0 0 0 0 0 0 0 0 0 0 0 0 0 0 0 0 0 0 0 0 0 0 0 0 0 0 0 0 0
0 0 0 0 0 0 0 0 0 0 0 0 0 0 0 0 0 0 0 0 0 0 0 0 0 0 0 0 0 0 0 0 0 0 0 0 0 0 0 0 0 0 0
0 0 0 0 0 0 0 0 0 0 0 0 0 0 0 0 0 0 0 0 0 0 0 0 0 0 0 0 0 0 0 0 0 0 0 0 0 0 0 0 0 0 0
0 0 0 0 0 0 0 0 0 0 0 0 0 0 0 0 0 0 0 0 0 0 0 0 0 0 0 0 0 0 0 0 0 0 0 0 0 0 0 0 0 0 0
0 0 0 0 0 0 0 0 0 0 0 0 0 0 0 0 0 0 0 0 0 0 0 0 0 0 0 0 0 0 0 0 0 0 0 0 0 0 0 0 0 0 0
0 0 0 0 0 0 0 0 0 0 0 0 0 0 0 0 0 0 0 0 0 0 0 0 0 0 0 0 0 0 0 0 0 0 0 0 0 0 0 0 0 0 0
0 0 0 0 0 0 0 0 0 0 0 0 0 0 0 0 0 0 0 0 0 0 0 0 0 0 0 0 0 0 0 0 0 0 0 0 0 0 0 0 0 1 10
0 0 0 0 0 0 0 0 0 0 0 0 0 0 0 0 0 0 0 0 0 0 0 0 0 0 0 0 0 0 0 0 0 0 0 0 0 0 0 0 0 3 1
0 0 0 0 0 0 0 0 0 0 0 0 0 0 0 0 0 0 0 0 0 0 0 0 0 0 0 0 0 0 0 0 0 0 0 0 0 0 0 0 0 4 6
0 0 0 0 0 0 0 0 0 0 0 0 0 0 0 0 0 0 0 0 0 0 0 0 0 0 0 0 0 0 0 0 0 0 0 0 0 0 0 1 4 17 18
0 0 0 0 0 0 0 0 0 0 0 0 0 0 0 0 0 0 0 0 0 0 0 0 0 0 0 0 0 0 0 0 0 0 0 0 1 0 2 5 11 8 23
0 0 0 0 0 0 0 0 0 0 0 0 0 0 0 0 0 0 0 0 0 0 0 0 0 0 0 0 0 0 0 0 0 0 0 0 0 0 2 8 14 16 14
0 0 0 0 0 0 0 0 0 0 0 0 0 0 0 0 0 0 0 0 0 0 0 0 0 0 0 0 0 0 0 0 0 0 0 0 0 2 7 10 19 24 12
0 0 0 0 0 0 0 0 0 0 0 0 0 0 0 0 0 0 0 0 0 0 0 0 0 0 0 0 0 0 0 0 0 0 0 1 1 9 13 11 21 36 15
0 0 0 0 0 0 0 0 0 0 0 0 0 0 0 0 0 0 0 0 0 0 0 0 0 0 0 0 0 0 0 0 0 1 2 5 7 12 28 36 18 0 0
0 0 0 0 0 0 0 0 0 0 0 0 0 0 0 0 0 0 0 0 0 0 0 0 0 0 0 0 0 0 3 1 1 2 8 7 10 15 50 18 3 2 2
0 0 0 0 0 0 0 0 0 0 0 0 0 0 0 0 0 0 0 0 0 0 0 0 0 0 0 0 0 0 2 5 5 7 3 6 14 30 16 9 1 7 20
0 0 0 0 0 0 0 0 0 0 0 0 0 0 0 0 0 0 0 0 0 0 0 0 0 0 0 0 0 1 6 7 4 7 5 10 53 6 3 2 5 8 7
0 0 0 0 0 0 0 0 0 0 0 0 0 0 0 0 0 0 0 0 0 0 0 0 0 0 0 0 0 1 5 8 3 8 16 37 0 0 0 0 3 2 0
0 0 0 0 0 0 0 0 0 0 0 0 0 0 0 0 0 0 0 0 0 0 0 0 0 0 0 0 0 0 5 10 10 27 18 0 0 0 0 0 0 0 0
0 0 0 0 0 0 0 0 0 0 0 0 0 0 0 0 0 0 0 0 0 0 0 0 0 0 0 0 5 10 4 11 27 17 0 0 0 0 0 0 0 0 0
0 0 0 0 0 0 0 0 0 0 0 0 0 0 0 0 0 0 0 0 0 0 0 0 0 0 4 8 9 8 9 25 11 0 0 0 2 1 0 0 0 0 0
CIN
0 0 0 0 0 0 0 0 0 -440 -344 -276 -348 0 0 0 0 0 0 0 0 0 0 0 0 0 0 0 0 0 0 0 0 0 0 0 0 0 0 0 0 0 0
0 0 0 0 0 0 0 0 0 -274 -58 0 0 0 0 0 0 0 0 0 0 0 0 0 0 0 0 0 0 0 0 0 0 0 0 0 0 0 0 0 0 0 0
0 0 0 0 0 0 0 0 0 0 0 0 0 0 0 0 0 0 0 0 0 0 0 0 0 0 0 0 0 0 0 0 0 0 0 0 0 0 0 0 0 0 0
0 0 0 0 0 0 0 0 0 0 0 0 0 0 0 0 0 0 0 0 0 0 0 0 0 0 0 0 0 0 0 0 0 0 0 0 0 0 0 0 0 0 0
0 0 0 0 0 0 0 0 0 0 0 0 0 0 0 0 0 0 0 0 0 0 0 0 0 0 0 0 0 0 0 0 0 0 0 0 0 0 0 0 0 0 0
0 0 0 0 0 0 0 0 0 0 0 0 0 0 0 0 0 0 0 0 0 0 0 0 0 0 0 0 0 0 0 0 0 0 0 0 0 0 0 0 0 0 0
0 0 0 0 0 0 0 0 0 0 0 0 0 0 0 0 0 0 0 0 0 0 0 0 0 0 0 0 0 0 0 0 0 0 0 0 0 0 0 0 0 0 0
0 0 0 0 0 0 0 0 0 0 0 0 0 0 0 0 0 0 0 0 0 0 0 0 0 0 0 0 0 0 0 0 0 0 0 0 0 0 0 0 0 0 0
0 0 0 0 0 0 0 0 0 0 0 0 0 0 0 0 0 0 0 0 0 0 0 0 0 0 0 0 0 0 0 0 0 0 0 0 0 0 0 0 0 0 0
0 0 0 0 0 0 0 0 0 0 0 0 0 0 0 0 0 0 0 0 0 0 0 0 0 0 0 0 0 0 0 0 0 0 0 0 0 0 0 0 0 0 0
0 0 0 0 0 0 0 0 0 0 0 0 0 0 0 0 0 0 0 0 0 0 0 0 0 0 0 0 0 0 0 0 0 0 0 0 0 0 0 0 0 0 0
0 0 0 0 0 0 0 0 0 0 0 0 0 0 0 0 0 0 0 0 0 0 0 0 0 0 0 0 0 0 0 0 0 0 0 0 0 0 0 0 0 0 -1
0 0 0 0 0 0 0 0 0 0 0 0 0 0 0 0 0 0 0 0 0 0 0 0 0 0 0 0 0 0 0 0 0 0 0 0 0 0 0 -1 -1 -1 0
0 0 0 0 0 0 0 0 0 0 0 0 0 0 0 0 0 0 0 0 0 0 0 0 0 0 0 0 0 0 0 0 0 0 0 0 0 0 0 -2 -1 0 0
0 0 0 0 0 0 0 0 0 0 0 0 0 0 0 0 0 0 0 0 0 0 0 0 0 0 0 0 0 0 0 0 0 0 0 0 -1 0 -4 -2 -1 -2 0
0 0 0 0 0 0 0 0 0 0 0 0 0 0 0 0 0 0 0 0 0 0 0 0 0 0 0 0 0 0 0 0 0 0 0 0 -1 0 -4 -4 -4 -5 -4
0 0 0 0 0 0 0 0 0 0 0 0 0 0 0 0 0 0 0 0 0 0 0 0 0 0 0 0 0 0 0 0 0 0 0 0 0 -2 -4 -2 -4 -4 -2
0 0 0 0 0 0 0 0 0 0 0 0 0 0 0 0 0 0 0 0 0 0 0 0 0 0 0 0 0 0 0 0 0 0 -1 -2 -3 -2 -3 -3 0 -1 -2
0 0 0 0 0 0 0 0 0 0 0 0 0 0 0 0 0 0 0 0 0 0 0 0 0 0 0 0 0 0 0 0 0 0 -1 -2 -2 -4 -4 -2 -1 -5 0
0 0 0 0 0 0 0 0 0 0 0 0 0 0 0 0 0 0 0 0 0 0 0 0 0 0 0 0 0 -1 -1 -1 -1 -1 -1 -2 -5 -5 -3 -4 -3 -1 -2
0 0 0 0 0 0 0 0 0 0 0 0 0 0 0 0 0 0 0 0 0 0 0 0 0 0 0 0 0 -2 -2 -2 0 0 0 0 -3 -4 -4 -6 -8 -3 -5
0 0 0 0 0 0 0 0 0 0 0 0 0 0 0 0 0 0 0 0 0 0 0 0 0 0 0 0 0 -3 -4 -5 -4 -1 0 -1 -1 -4 -5 -6 -6 -8 -8
0 0 0 0 0 0 0 0 0 0 0 0 0 0 0 0 0 0 0 0 0 0 0 0 0 0 0 0 0 -2 -3 -4 -5 -1 -2 -1 -1 0 -1 -3 -4 -6 0
0 0 0 0 0 0 0 0 0 0 0 0 0 0 0 0 0 0 0 0 0 0 0 0 0 0 0 0 0 0 0 -2 -2 -1 -2 0 0 0 0 0 0 0 0
0 0 0 0 0 0 0 0 0 0 0 0 0 0 0 0 0 0 0 0 0 0 0 0 0 0 0 0 -3 -4 -3 -4 -2 -5 0 0 0 0 0 0 0 0 -1
0 0 0 0 0 0 0 0 0 0 0 0 0 0 0 0 0 0 0 0 0 0 0 0 -1 -2 -2 -2 -3 -4 -5 -3 -5 -3 0 0 -1 0 0 0 0 -1 -1
Wind_Speed
12 12 11 11 11 12 12 13 12 12 11 11 11 12 14 15 17 19 21 22 24 25 26 26 27 29 30 31 33 34 37 37 38 40 41 40 34 37 38 38 40 41 41
8 8 9 9 10 11 12 13 13 13 13 13 13 13 14 16 17 19 21 23 24 26 27 28 29 31 32 33 35 37 38 37 39 41 45 42 43 36 45 44 40 41 39
6 5 6 7 8 10 11 12 13 14 14 13 14 15 15 17 19 20 21 24 25 27 28 29 31 32 33 34 36 36 38 39 38 38 40 45 46 54 45 45 39 43 46
5 5 4 5 7 9 10 11 12 13 14 15 15 16 17 18 19 20 22 23 25 27 30 31 32 32 33 35 36 35 37 38 41 40 38 40 45 52 58 41 48 44 45
6 5 4 4 6 8 9 11 12 14 15 16 16 16 17 18 20 21 23 24 26 28 31 33 33 34 33 34 35 36 37 38 40 42 43 44 44 45 53 62 53 49 47
7 5 4 3 5 7 8 10 11 14 15 16 17 18 19 20 21 24 25 27 28 30 32 33 33 33 33 35 36 37 38 39 39 40 42 44 48 51 52 58 59 59 54
6 5 3 2 3 5 7 9 11 13 15 17 18 19 20 21 23 25 27 29 30 32 34 34 35 34 34 35 37 38 39 40 40 42 42 44 45 45 48 53 59 61 58
6 5 3 2 2 4 7 9 11 13 15 17 19 20 21 22 24 26 28 30 31 33 34 35 35 35 36 37 38 39 39 40 41 42 43 45 44 45 47 51 55 65 63
5 4 3 2 3 5 7 9 11 13 16 18 19 20 22 24 26 28 29 31 32 33 34 35 35 36 37 38 39 39 41 41 42 43 44 45 45 46 46 47 48 54 68
6 4 3 3 3 5 7 9 11 14 16 18 19 21 23 25 27 29 31 32 33 34 35 35 35 37 38 39 40 41 42 43 43 45 46 46 46 47 47 47 47 49 53
6 4 3 3 4 6 7 9 12 14 16 18 20 21 24 26 28 30 32 34 34 34 34 35 36 38 39 40 42 43 43 44 46 45 46 48 48 48 47 47 49 49 48
6 4 4 4 5 6 8 10 12 15 17 18 20 23 25 28 30 32 33 34 34 34 34 36 37 39 40 41 43 44 43 46 47 47 48 48 47 49 48 49 49 48 49
5 4 4 5 5 6 8 11 13 15 16 18 21 24 27 29 31 33 34 34 34 34 35 37 38 40 41 42 43 43 45 47 47 48 48 49 49 50 49 48 49 48 46
5 4 5 6 6 8 10 12 13 14 17 19 22 25 28 30 32 33 33 34 34 35 37 37 39 41 42 43 43 44 47 47 47 46 46 47 47 48 49 49 46 46 48
6 8 8 7 8 9 11 12 13 15 17 20 24 27 29 30 31 33 34 34 35 36 37 39 40 41 42 42 44 46 47 48 49 46 46 46 46 47 46 45 46 48 47
9 10 8 8 9 10 12 12 13 16 18 21 24 27 29 31 32 34 35 35 37 38 39 40 41 42 42 44 45 45 47 48 48 48 47 46 46 45 46 47 47 45 47
11 11 9 9 11 11 11 12 14 16 19 22 25 27 29 32 33 34 36 36 38 39 40 41 42 44 44 44 45 45 46 47 47 47 47 46 45 47 48 46 46 45 44
11 9 10 10 11 10 11 13 15 17 20 23 25 28 31 33 34 34 35 37 39 40 42 42 43 44 44 45 45 45 46 46 45 45 46 47 48 47 46 48 48 45 42
10 10 10 9 10 11 12 13 15 18 21 24 27 30 32 33 33 35 37 38 40 41 42 43 44 46 45 45 44 46 46 45 45 45 46 47 46 46 49 48 49 48 47
12 11 10 10 11 11 11 13 17 20 23 26 28 30 31 31 33 35 37 39 40 42 43 44 44 45 46 43 44 44 44 46 46 46 46 46 46 48 48 49 49 47 43
12 11 10 11 11 11 12 16 19 22 24 26 29 30 30 32 33 35 37 40 41 43 44 46 45 44 42 42 43 43 44 45 48 48 48 46 47 47 50 49 42 36 37
12 12 12 12 12 13 15 19 22 23 25 28 28 29 30 32 34 37 39 40 43 45 46 46 46 42 41 42 43 44 45 47 48 48 47 46 46 51 49 42 38 37 35
12 12 12 13 14 16 18 21 23 24 27 27 28 29 31 33 35 39 41 42 43 45 46 46 46 44 43 43 43 45 47 48 48 46 46 44 49 48 41 38 29 20 16
12 13 13 15 17 18 20 22 23 24 25 26 28 30 34 36 37 37 40 41 43 44 44 45 45 44 44 43 44 46 47 48 47 45 42 45 43 41 36 26 16 16 16
14 14 15 17 18 18 20 22 22 23 25 27 30 34 36 38 40 39 41 41 40 41 43 42 43 45 45 44 47 49 49 48 45 46 42 40 39 34 20 22 18 13 16
15 16 17 18 18 19 20 20 21 23 26 30 33 36 37 38 39 41 42 39 40 40 40 39 39 40 41 44 47 48 47 45 45 41 39 37 22 22 24 19 17 17 20
Wind_Direction
300 301 306 317 330 341 350 358 6 15 20 17 13 7 2 4 2 1 360 359 356 354 351 349 347 345 343 341 339 336 333 332 332 328 326 326 327 328 326 328 326 322 320
295 301 308 320 335 347 358 7 13 17 14 14 14 14 11 8 7 5 1 358 355 352 350 348 345 344 341 339 337 336 333 333 333 330 327 326 323 327 324 323 324 322 323
281 290 304 324 336 352 3 11 15 18 23 23 21 18 14 7 1 359 359 356 356 354 351 348 345 343 342 339 338 337 336 332 334 335 330 326 323 321 325 324 324 325 322
266 278 298 316 342 2 15 18 17 16 12 11 10 5 1 358 357 358 359 357 355 352 349 346 345 343 342 339 338 341 337 335 331 332 332 328 325 323 321 326 323 324 322
249 256 285 320 355 13 12 18 18 15 11 12 11 7 3 0 360 358 353 353 351 349 346 344 344 342 343 343 340 339 338 336 333 332 330 328 327 326 321 318 322 321 321
239 254 278 328 355 11 12 12 11 11 11 10 8 4 1 358 356 353 349 348 347 346 346 345 345 345 344 342 340 338 337 335 333 332 331 329 327 325 323 320 319 319 320
228 233 247 302 346 355 3 2 2 2 3 3 2 0 358 357 354 351 348 346 344 344 343 345 343 343 342 341 339 337 335 334 333 332 330 329 327 326 324 321 319 318 319
232 237 244 275 327 348 351 354 356 358 358 357 356 355 354 353 351 349 347 345 344 343 343 342 342 341 340 339 337 336 335 334 332 331 330 328 328 327 325 323 321 318 317
223 222 235 272 315 336 345 349 352 353 352 352 352 352 352 351 349 347 346 344 344 343 342 342 341 340 339 338 337 336 334 333 332 331 330 329 328 327 326 324 322 320 316
224 224 239 270 312 331 342 348 349 348 348 349 349 349 350 350 347 346 345 344 343 342 341 341 341 339 339 338 336 335 334 332 332 331 329 329 328 327 326 325 323 321 318
217 217 237 274 310 328 334 340 342 343 345 346 347 348 347 346 345 345 344 343 342 342 342 341 340 339 337 336 335 334 333 332 331 331 329 328 328 327 327 326 324 321 320
213 224 242 275 300 318 330 334 337 340 342 344 345 345 344 344 343 342 343 343 343 343 342 340 339 338 336 335 334 333 333 332 331 330 329 328 329 327 327 326 324 323 322
204 220 249 277 297 315 325 329 334 337 340 342 342 342 342 342 342 342 343 343 343 342 341 339 337 336 335 335 334 333 333 332 331 330 330 329 328 327 327 327 326 324 323
225 239 267 284 300 312 320 326 331 336 338 340 340 340 340 341 342 342 343 343 342 340 339 338 336 336 335 335 334 334 333 332 332 331 330 329 329 328 328 327 326 326 324
252 264 278 289 300 310 318 324 329 333 337 338 338 339 341 342 342 342 342 341 341 339 338 337 336 336 335 335 335 334 333 332 331 331 330 330 330 328 328 329 328 327 325
273 275 281 292 301 308 316 322 327 331 336 337 338 340 341 341 341 341 341 340 339 338 337 336 335 335 335 335 334 334 333 332 331 331 331 331 331 331 330 329 327 326 326
286 284 288 296 305 311 318 322 328 334 336 338 339 340 341 340 340 340 340 339 338 337 336 336 335 335 335 335 335 335 334 332 332 332 332 332 333 332 330 328 328 328 326
302 302 304 308 315 321 324 329 333 336 337 338 339 339 340 339 340 340 340 339 338 337 337 336 336 335 335 335 335 335 334 334 334 334 334 333 333 332 331 331 330 330 328
322 322 324 325 326 326 329 334 337 337 338 337 338 338 339 339 340 340 339 339 338 338 337 337 336 335 335 336 336 335 335 335 335 335 335 334 333 333 333 333 331 329 329
330 333 337 335 331 335 341 339 337 337 336 336 337 339 340 340 340 340 340 339 339 338 338 336 336 335 335 337 337 337 337 335 335 335 335 335 334 335 335 334 333 332 334
339 345 345 340 344 346 343 338 337 335 337 338 338 340 341 341 341 340 340 340 339 338 337 336 337 337 337 338 338 338 337 336 335 336 336 336 336 336 334 335 338 337 337
340 345 346 346 347 345 341 337 335 338 338 339 340 341 342 342 341 341 341 341 339 338 338 338 337 339 339 339 338 338 338 337 336 336 336 336 337 335 336 340 340 341 344
346 347 347 345 344 342 340 337 338 339 339 341 342 342 343 343 343 341 340 340 340 339 338 338 338 339 340 340 339 339 338 337 337 337 336 338 336 337 342 344 347 302 300
344 343 343 339 338 339 339 340 341 342 343 343 343 343 342 342 343 343 341 341 341 340 339 339 339 339 339 340 341 340 339 339 339 339 340 339 340 343 347 352 305 295 298
340 340 337 336 337 340 341 342 344 346 345 344 343 342 342 341 341 341 341 341 340 340 339 339 339 339 339 340 339 339 339 340 340 340 342 345 347 351 343 295 295 316 337
339 337 338 338 340 342 343 347 349 348 346 343 343 342 342 342 342 341 341 342 341 341 340 339 339 339 338 339 340 340 341 342 343 345 346 349 352 298 296 298 307 342 308